FW5778 Weather Reports


Display with metric or nautical units.
time (UTC)temp
F
wind
direction
speed
MPH
gust
MPH
rain 1hr
in
rain 24hr
in
rain mn
in
humidity
%
barometer
mb
20260509183537 67 80 4.0 13.0 0.00 0.00 0.00 24 1019.1
20260509183037 67 334 7.0 13.0 0.00 0.00 0.00 23 1019.2
20260509182537 67 326 7.0 12.0 0.00 0.00 0.00 23 1019.1
20260509182037 67 323 6.0 15.0 0.00 0.00 0.00 24 1019.2
20260509181536 67 341 5.0 14.0 0.00 0.00 0.00 20 1019.1
20260509181035 67 34 9.0 16.0 0.00 0.00 0.00 19 1019.1
20260509180535 67 13 4.0 13.0 0.00 0.00 0.00 21 1019.2
20260509180034 67 42 7.0 13.0 0.00 0.00 0.00 21 1019.2
20260509175533 66 44 6.0 13.0 0.00 0.00 0.00 20 1019.2
20260509175036 66 51 3.0 17.0 0.00 0.00 0.00 20 1019.2
20260509174532 66 11 8.0 17.0 0.00 0.00 0.00 22 1019.2
20260509174032 66 324 6.0 14.0 0.00 0.00 0.00 22 1019.2
20260509173532 66 22 7.0 14.0 0.00 0.00 0.00 21 1019.3
20260509173054 66 335 7.0 12.0 0.00 0.00 0.00 21 1019.2
20260509172531 66 23 6.0 13.0 0.00 0.00 0.00 23 1019.2
20260509172032 66 331 7.0 13.0 0.00 0.00 0.00 23 1019.2
20260509171536 66 37 8.0 15.0 0.00 0.00 0.00 23 1019.2
20260509171030 66 347 3.0 12.0 0.00 0.00 0.00 24 1019.1
20260509170531 66 321 6.0 13.0 0.00 0.00 0.00 23 1019.2
20260509170030 66 331 6.0 11.0 0.00 0.00 0.00 24 1019.1
20260509165527 66 11 4.0 12.0 0.00 0.00 0.00 24 1019.1
20260509165027 66 352 8.0 12.0 0.00 0.00 0.00 23 1019.2
20260509164527 65 349 6.0 12.0 0.00 0.00 0.00 24 1019.1
20260509164026 65 342 7.0 16.0 0.00 0.00 0.00 24 1019.2
20260509163526 65 15 7.0 16.0 0.00 0.00 0.00 24 1019.2
20260509163025 65 3 5.0 12.0 0.00 0.00 0.00 24 1019.3
20260509162525 65 24 7.0 12.0 0.00 0.00 0.00 24 1019.3
20260509162024 65 350 6.0 13.0 0.00 0.00 0.00 25 1019.3
20260509161524 64 25 6.0 14.0 0.00 0.00 0.00 24 1019.3
20260509161022 64 352 7.0 14.0 0.00 0.00 0.00 24 1019.3
20260509160523 64 19 5.0 13.0 0.00 0.00 0.00 25 1019.3
20260509160023 64 21 6.0 15.0 0.00 0.00 0.00 25 1019.4
20260509155520 64 21 9.0 15.0 0.00 0.00 0.00 25 1019.5
20260509155020 64 24 8.0 15.0 0.00 0.00 0.00 25 1019.4
20260509154519 64 8 6.0 16.0 0.00 0.00 0.00 25 1019.4
20260509154020 64 6 10.0 15.0 0.00 0.00 0.00 24 1019.4
20260509153519 64 6 5.0 15.0 0.00 0.00 0.00 25 1019.5
20260509153029 64 25 4.0 12.0 0.00 0.00 0.00 26 1019.4
20260509152517 64 19 5.0 15.0 0.00 0.00 0.00 25 1019.3
20260509152017 64 345 5.0 15.0 0.00 0.00 0.00 26 1019.3
20260509151516 63 16 6.0 12.0 0.00 0.00 0.00 25 1019.3
20260509151018 63 34 5.0 12.0 0.00 0.00 0.00 26 1019.2
20260509150514 63 328 6.0 13.0 0.00 0.00 0.00 26 1019.3
20260509150013 63 355 6.0 11.0 0.00 0.00 0.00 26 1019.2
20260509145513 63 319 6.0 11.0 0.00 0.00 0.00 26 1019.3
20260509145013 63 320 4.0 10.0 0.00 0.00 0.00 27 1019.2
20260509144512 63 326 4.0 10.0 0.00 0.00 0.00 28 1019.2
20260509144012 62 338 5.0 9.0 0.00 0.00 0.00 27 1019.1
20260509143516 62 20 4.0 8.0 0.00 0.00 0.00 27 1019.1
20260509143013 62 297 4.0 10.0 0.00 0.00 0.00 28 1019.1
20260509142510 62 326 5.0 10.0 0.00 0.00 0.00 27 1019.1
20260509142010 62 306 5.0 10.0 0.00 0.00 0.00 28 1019.0
20260509141510 61 330 5.0 9.0 0.00 0.00 0.00 29 1019.1
20260509141013 61 326 2.0 9.0 0.00 0.00 0.00 30 1019.0
20260509140509 61 299 4.0 9.0 0.00 0.00 0.00 30 1019.0
20260509140009 60 326 4.0 7.0 0.00 0.00 0.00 30 1019.0
20260509135508 60 329 3.0 9.0 0.00 0.00 0.00 31 1019.0
20260509135008 60 317 4.0 9.0 0.00 0.00 0.00 31 1018.9
20260509134506 59 318 3.0 9.0 0.00 0.00 0.00 32 1018.8
20260509134008 59 311 4.0 7.0 0.00 0.00 0.00 32 1018.8
20260509133506 58 302 2.0 4.0 0.00 0.00 0.00 34 1018.7
20260509133006 58 325 2.0 4.0 0.00 0.00 0.00 34 1018.7
20260509132505 57 302 2.0 4.0 0.00 0.00 0.00 34 1018.6
20260509132006 57 304 1.0 3.0 0.00 0.00 0.00 35 1018.5
20260509131504 56 299 1.0 3.0 0.00 0.00 0.00 36 1018.5
20260509131004 56 292 1.0 4.0 0.00 0.00 0.00 36 1018.4
20260509130503 56 303 1.0 4.0 0.00 0.00 0.00 37 1018.4
20260509130006 55 294 2.0 5.0 0.00 0.00 0.00 37 1018.3
20260509125501 55 318 2.0 5.0 0.00 0.00 0.00 37 1018.2
20260509125101 55 296 2.0 4.0 0.00 0.00 0.00 38 1018.2
20260509124603 54 305 2.0 5.0 0.00 0.00 0.00 38 1018.2
20260509124101 54 297 2.0 5.0 0.00 0.00 0.00 38 1018.1
20260509123604 54 272 1.0 4.0 0.00 0.00 0.00 38 1018.2
20260509123121 55 288 2.0 4.0 0.00 0.00 0.00 37 1018.1
20260509122559 55 297 1.0 3.0 0.00 0.00 0.00 35 1018.1
20260509122055 56 283 1.0 3.0 0.00 0.00 0.00 34 1018.0
20260509121554 56 301 2.0 5.0 0.00 0.00 0.00 33 1017.9
20260509121053 56 309 2.0 5.0 0.00 0.00 0.00 32 1018.0
20260509120552 56 302 1.0 4.0 0.00 0.00 0.00 32 1017.8
20260509120052 57 323 2.0 5.0 0.00 0.00 0.00 31 1017.8
20260509115549 57 312 3.0 6.0 0.00 0.00 0.00 30 1017.7
20260509115051 57 322 3.0 7.0 0.00 0.00 0.00 30 1017.7
20260509114623 57 319 3.0 8.0 0.00 0.00 0.00 30 1017.7
20260509114049 57 327 2.0 8.0 0.00 0.00 0.00 30 1017.6
20260509113549 57 316 3.0 7.0 0.00 0.00 0.00 30 1017.6
20260509113054 57 306 4.0 7.0 0.00 0.00 0.00 30 1017.7
20260509112553 57 331 1.0 4.0 0.00 0.00 0.00 30 1017.7
20260509112047 58 276 2.0 5.0 0.00 0.00 0.00 30 1017.6
20260509111546 58 322 2.0 6.0 0.00 0.00 0.00 30 1017.5
20260509111045 58 319 3.0 9.0 0.00 0.00 0.00 29 1017.5
20260509110544 58 326 4.0 10.0 0.00 0.00 0.00 29 1017.4
20260509110056 58 333 3.0 7.0 0.00 0.00 0.00 30 1017.4
20260509105545 59 319 2.0 9.0 0.00 0.00 0.00 30 1017.4
20260509105043 59 297 5.0 9.0 0.00 0.00 0.00 29 1017.4
20260509104543 59 312 4.0 9.0 0.00 0.00 0.00 29 1017.4
20260509104045 59 330 3.0 11.0 0.00 0.00 0.00 29 1017.3
20260509103541 59 322 5.0 11.0 0.00 0.00 0.00 28 1017.3
20260509103041 59 321 5.0 11.0 0.00 0.00 0.00 29 1017.2
20260509102540 60 326 5.0 12.0 0.00 0.00 0.00 29 1017.3
20260509102040 60 4 4.0 12.0 0.00 0.00 0.00 28 1017.3
20260509101552 60 321 3.0 10.0 0.00 0.00 0.00 29 1017.2
20260509101040 60 307 4.0 9.0 0.00 0.00 0.00 29 1017.3
20260509100537 60 322 3.0 9.0 0.00 0.00 0.00 30 1017.2
20260509100036 60 307 4.0 9.0 0.00 0.00 0.00 30 1017.1
20260509095535 60 290 2.0 7.0 0.00 0.00 0.00 30 1017.2
20260509095036 60 300 2.0 5.0 0.00 0.00 0.00 30 1017.1
20260509094535 60 312 2.0 5.0 0.00 0.00 0.00 30 1017.0
20260509094035 60 273 2.0 7.0 0.00 0.00 0.00 30 1017.0
20260509093534 61 336 2.0 7.0 0.00 0.00 0.00 30 1016.9
20260509093034 61 283 4.0 10.0 0.00 0.00 0.00 30 1016.9
20260509092533 61 342 3.0 12.0 0.00 0.00 0.00 30 1016.9
20260509092034 61 323 4.0 10.0 0.00 0.00 0.00 30 1016.8
20260509091540 61 302 4.0 11.0 0.00 0.00 0.00 30 1016.8
20260509091031 61 323 6.0 10.0 0.00 0.00 0.00 31 1016.7
20260509090531 61 295 5.0 10.0 0.00 0.00 0.00 32 1016.6
20260509090030 61 322 4.0 11.0 0.00 0.00 0.00 33 1016.6
20260509085528 61 356 4.0 11.0 0.00 0.00 0.00 33 1016.5
20260509085028 61 307 3.0 8.0 0.00 0.00 0.00 32 1016.5
20260509084529 61 305 3.0 8.0 0.00 0.00 0.00 31 1016.4
20260509084029 62 307 3.0 8.0 0.00 0.00 0.00 31 1016.4
20260509083526 62 332 3.0 9.0 0.00 0.00 0.00 30 1016.3
20260509083026 62 305 5.0 9.0 0.00 0.00 0.00 30 1016.2
20260509082526 62 324 2.0 8.0 0.00 0.00 0.00 30 1016.2
20260509082026 63 319 4.0 10.0 0.00 0.00 0.00 30 1016.1
20260509081525 63 328 4.0 10.0 0.00 0.00 0.00 30 1016.0
20260509081025 63 325 4.0 8.0 0.00 0.00 0.00 30 1016.0
20260509080524 63 304 2.0 7.0 0.00 0.00 0.00 30 1015.9
20260509080024 63 319 3.0 7.0 0.00 0.00 0.00 30 1015.7
20260509075523 63 309 3.0 8.0 0.00 0.00 0.00 30 1015.8
20260509075023 63 338 3.0 9.0 0.00 0.00 0.00 30 1015.8
20260509074523 63 290 2.0 8.0 0.00 0.00 0.00 30 1015.8
20260509074021 63 321 2.0 8.0 0.00 0.00 0.00 30 1015.7
20260509073521 62 303 3.0 7.0 0.00 0.00 0.00 31 1015.7
20260509073021 62 311 3.0 11.0 0.00 0.00 0.00 33 1015.6
20260509072520 62 326 3.0 11.0 0.00 0.00 0.00 35 1015.6
20260509072019 61 310 3.0 6.0 0.00 0.00 0.00 38 1015.6
20260509071519 59 303 2.0 5.0 0.00 0.00 0.00 41 1015.5
20260509071018 58 298 0.0 4.0 0.00 0.00 0.00 40 1015.5
20260509070517 58 247 1.0 4.0 0.00 0.00 0.00 38 1015.5
20260509070016 59 91 0.0 1.0 0.00 0.00 0.00 38 1015.4
20260509065514 59 102 0.0 2.0 0.00 0.00 0.00 37 1015.3
20260509065013 60 143 1.0 2.0 0.00 0.00 0.00 35 1015.2
20260509064512 60 312 0.0 3.0 0.00 0.00 0.00 34 1015.2
20260509064014 61 312 0.0 3.0 0.00 0.00 0.00 34 1015.1
20260509063514 61 1 0.0 1.0 0.00 0.00 0.00 35 1014.9
20260509063010 60 328 0.0 1.0 0.00 0.00 0.00 35 1014.8
20260509062511 60 328 0.0 0.0 0.00 0.00 0.00 36 1014.9
20260509062008 61 328 0.0 0.0 0.00 0.00 0.00 35 1014.9
20260509061513 62 328 0.0 0.0 0.00 0.00 0.00 34 1014.8
20260509061004 62 328 0.0 0.0 0.00 0.00 0.00 34 1014.9
20260509060503 63 328 0.0 5.0 0.00 0.00 0.00 33 1015.0
20260509060002 63 328 1.0 5.0 0.00 0.00 0.00 33 1015.0
20260509055502 63 326 1.0 4.0 0.00 0.00 0.00 33 1014.9
20260509055003 63 329 1.0 4.0 0.00 0.00 0.00 32 1014.9
20260509054502 63 322 2.0 5.0 0.00 0.00 0.00 32 1015.1
20260509054004 63 296 0.0 3.0 0.00 0.00 0.00 30 1015.1
20260509053503 63 347 1.0 7.0 0.00 0.00 0.00 30 1015.1
20260509053003 63 304 3.0 8.0 0.00 0.00 0.00 29 1015.0
20260509052502 62 309 3.0 8.0 0.00 0.00 0.00 30 1015.0
20260509052001 62 344 4.0 7.0 0.00 0.00 0.00 31 1014.9
20260509051501 62 30 1.0 5.0 0.00 0.00 0.00 31 1014.6
20260509051102 62 269 1.0 5.0 0.00 0.00 0.00 30 1014.6
20260509050600 63 292 2.0 4.0 0.00 0.00 0.00 30 1014.5
20260509050100 63 270 2.0 4.0 0.00 0.00 0.00 30 1014.5
20260509045559 63 252 1.0 3.0 0.00 0.00 0.00 30 1014.4
20260509045059 63 255 1.0 3.0 0.00 0.00 0.00 30 1014.4
20260509044616 63 281 2.0 3.0 0.00 0.00 0.00 30 1014.4
20260509044059 63 269 1.0 3.0 0.00 0.00 0.00 30 1014.4
20260509043602 64 255 2.0 3.0 0.00 0.00 0.00 30 1014.4
20260509043059 64 240 2.0 3.0 0.00 0.00 0.00 30 1014.3
20260509042559 64 257 1.0 3.0 0.00 0.00 0.00 30 1014.3
20260509042059 64 257 1.0 3.0 0.00 0.00 0.00 30 1014.2
20260509041600 64 257 1.0 2.0 0.00 0.00 0.00 30 1014.2
20260509041059 64 273 0.0 3.0 0.00 0.00 0.00 31 1014.2
20260509040558 64 265 0.0 3.0 0.00 0.00 0.00 31 1014.3
20260509040058 64 257 0.0 3.0 0.00 0.00 0.00 31 1014.2
20260509035600 64 265 1.0 3.0 0.00 0.00 0.00 31 1014.2
20260509035058 64 245 1.0 4.0 0.00 0.00 0.00 31 1014.2
20260509034558 64 237 2.0 4.0 0.00 0.00 0.00 31 1014.2
20260509034057 65 226 2.0 3.0 0.00 0.00 0.00 30 1014.1
20260509033557 65 252 2.0 3.0 0.00 0.00 0.00 29 1014.0
20260509033057 65 238 2.0 3.0 0.00 0.00 0.00 30 1014.0
20260509032559 65 255 1.0 3.0 0.00 0.00 0.00 29 1014.0
20260509032056 66 248 1.0 3.0 0.00 0.00 0.00 28 1013.9
20260509031608 66 262 1.0 3.0 0.00 0.00 0.00 28 1013.9
20260509031059 66 241 1.0 3.0 0.00 0.00 0.00 27 1013.8
20260509030556 66 249 1.0 4.0 0.00 0.00 0.00 27 1013.8
20260509030057 67 276 2.0 4.0 0.00 0.00 0.00 27 1013.9
20260509025554 67 269 2.0 3.0 0.00 0.00 0.00 27 1013.8
20260509025054 67 241 0.0 0.0 0.00 0.00 0.00 27 1013.7
20260509024557 68 241 0.0 0.0 0.00 0.00 0.00 26 1013.8
20260509024054 68 239 0.0 0.0 0.00 0.00 0.00 26 1013.7
20260509023554 69 124 0.0 0.0 0.00 0.00 0.00 25 1013.7
20260509023106 70 103 0.0 0.0 0.00 0.00 0.00 25 1013.7
20260509022556 71 103 0.0 0.0 0.00 0.00 0.00 23 1013.6
20260509022056 71 103 0.0 0.0 0.00 0.00 0.00 21 1013.6
20260509021554 71 103 0.0 0.0 0.00 0.00 0.00 21 1013.6
20260509021056 72 103 0.0 2.0 0.00 0.00 0.00 21 1013.5
20260509020555 72 103 0.0 3.0 0.00 0.00 0.00 21 1013.5
20260509020054 73 91 1.0 3.0 0.00 0.00 0.00 20 1013.5
20260509015554 73 88 0.0 3.0 0.00 0.00 0.00 20 1013.6
20260509015054 74 79 0.0 4.0 0.00 0.00 0.00 20 1013.5
20260509014552 74 101 1.0 4.0 0.00 0.00 0.00 19 1013.5
20260509014052 75 95 1.0 9.0 0.00 0.00 0.00 19 1013.5
20260509013552 76 44 2.0 9.0 0.00 0.00 0.00 18 1013.6
20260509013052 76 14 2.0 9.0 0.00 0.00 0.00 16 1013.6
20260509012551 76 281 4.0 9.0 0.00 0.00 0.00 16 1013.6
20260509012049 76 296 3.0 8.0 0.00 0.00 0.00 17 1013.7
20260509011549 76 271 0.0 7.0 0.00 0.00 0.00 17 1013.7
20260509011047 76 59 3.0 7.0 0.00 0.00 0.00 18 1013.8
20260509010547 76 19 3.0 9.0 0.00 0.00 0.00 18 1013.9
20260509010048 76 238 1.0 9.0 0.00 0.00 0.00 19 1014.0
20260509005545 76 319 3.0 7.0 0.00 0.00 0.00 18 1014.0
20260509005048 76 46 2.0 7.0 0.00 0.00 0.00 18 1014.0
20260509004544 76 12 2.0 10.0 0.00 0.00 0.00 18 1014.0
20260509004044 76 44 6.0 10.0 0.00 0.00 0.00 18 1014.1
20260509003543 75 37 7.0 10.0 0.00 0.00 0.00 19 1014.1
20260509003047 75 337 3.0 8.0 0.00 0.00 0.00 19 1014.2
20260509002543 75 360 3.0 7.0 0.00 0.00 0.00 19 1014.2
20260509002042 75 37 4.0 11.0 0.00 0.00 0.00 19 1014.2
20260509001544 75 17 5.0 11.0 0.00 0.00 0.00 19 1014.3
20260509001042 75 25 6.0 11.0 0.00 0.00 0.00 19 1014.3
20260509000544 75 3 5.0 12.0 0.00 0.00 0.00 19 1014.3
20260509000043 75 2 4.0 10.0 0.00 0.00 0.00 19 1014.4
20260508235540 75 46 6.0 12.0 0.00 0.00 0.00 19 1014.4
20260508235039 75 9 5.0 12.0 0.00 0.00 0.00 19 1014.4
20260508234541 75 30 5.0 11.0 0.00 0.00 0.00 19 1014.4
20260508234039 75 15 3.0 14.0 0.00 0.00 0.00 19 1014.4
20260508233539 75 332 8.0 14.0 0.00 0.00 0.00 19 1014.4
20260508233041 75 10 6.0 11.0 0.00 0.00 0.00 19 1014.5
20260508232539 75 309 8.0 11.0 0.00 0.00 0.00 18 1014.5
20260508232041 75 333 4.0 10.0 0.00 0.00 0.00 19 1014.5
20260508231539 75 26 6.0 13.0 0.00 0.00 0.00 19 1014.5
20260508231036 75 59 9.0 13.0 0.00 0.00 0.00 19 1014.6
20260508230536 75 355 6.0 14.0 0.00 0.00 0.00 19 1014.5
20260508230043 75 28 7.0 15.0 0.00 0.00 0.00 19 1014.6
20260508225535 75 347 6.0 15.0 0.00 0.00 0.00 20 1014.7
20260508225035 75 56 8.0 15.0 0.00 0.00 0.00 19 1014.7
20260508224537 75 10 9.0 15.0 0.00 0.00 0.00 19 1014.9
20260508224037 75 56 6.0 16.0 0.00 0.00 0.00 19 1014.9
20260508223533 75 313 9.0 16.0 0.00 0.00 0.00 19 1015.0
20260508223035 75 285 8.0 16.0 0.00 0.00 0.00 20 1014.9
20260508222532 75 283 9.0 16.0 0.00 0.00 0.00 20 1015.0
20260508222031 75 335 8.0 16.0 0.00 0.00 0.00 20 1015.1
20260508221531 75 357 7.0 14.0 0.00 0.00 0.00 19 1015.2
20260508221029 74 1 9.0 18.0 0.00 0.00 0.00 20 1015.3
20260508220528 74 40 9.0 18.0 0.00 0.00 0.00 20 1015.3
20260508215528 74 328 7.0 18.0 0.00 0.00 0.00 21 1015.4
20260508215027 74 12 8.0 16.0 0.00 0.00 0.00 20 1015.5
20260508214525 74 16 7.0 16.0 0.00 0.00 0.00 20 1015.6
20260508214026 74 320 9.0 14.0 0.00 0.00 0.00 20 1015.7
20260508213524 74 27 5.0 17.0 0.00 0.00 0.00 21 1015.6
20260508213024 74 23 10.0 17.0 0.00 0.00 0.00 20 1015.6
20260508212523 73 342 9.0 17.0 0.00 0.00 0.00 21 1015.8
20260508212022 73 304 10.0 17.0 0.00 0.00 0.00 21 1015.8
20260508211524 73 13 9.0 17.0 0.00 0.00 0.00 21 1016.0
20260508211021 73 34 9.0 17.0 0.00 0.00 0.00 20 1016.0
20260508210520 73 23 8.0 19.0 0.00 0.00 0.00 21 1016.1
20260508210020 73 15 9.0 20.0 0.00 0.00 0.00 21 1016.1
20260508205519 72 30 10.0 20.0 0.00 0.00 0.00 21 1016.1
20260508205021 72 23 11.0 18.0 0.00 0.00 0.00 21 1016.2
20260508204521 72 25 11.0 19.0 0.00 0.00 0.00 21 1016.3
20260508204022 73 12 11.0 21.0 0.00 0.00 0.00 21 1016.3
20260508203518 73 32 9.0 25.0 0.00 0.00 0.00 21 1016.3
20260508203018 73 1 9.0 23.0 0.00 0.00 0.00 21 1016.3
20260508202519 72 311 9.0 23.0 0.00 0.00 0.00 22 1016.3
20260508202018 72 8 10.0 19.0 0.00 0.00 0.00 22 1016.4
20260508201521 72 340 8.0 24.0 0.00 0.00 0.00 22 1016.4
20260508201015 72 27 12.0 24.0 0.00 0.00 0.00 21 1016.4
20260508200516 72 345 11.0 21.0 0.00 0.00 0.00 21 1016.5
20260508200016 72 326 11.0 24.0 0.00 0.00 0.00 22 1016.5
20260508195514 72 342 11.0 24.0 0.00 0.00 0.00 22 1016.5
20260508195016 72 10 13.0 23.0 0.00 0.00 0.00 21 1016.4
20260508194514 72 28 12.0 21.0 0.00 0.00 0.00 22 1016.5
20260508194014 71 347 8.0 21.0 0.00 0.00 0.00 22 1016.6
20260508193514 72 18 9.0 17.0 0.00 0.00 0.00 21 1016.6
20260508193013 72 316 7.0 20.0 0.00 0.00 0.00 23 1016.7
20260508192513 71 3 10.0 20.0 0.00 0.00 0.00 23 1016.6
20260508192013 72 24 8.0 18.0 0.00 0.00 0.00 23 1016.8
20260508191517 71 21 9.0 19.0 0.00 0.00 0.00 23 1016.7
20260508191012 71 6 12.0 20.0 0.00 0.00 0.00 22 1016.7
20260508190513 71 10 7.0 20.0 0.00 0.00 0.00 23 1016.8
20260508190013 71 39 8.0 21.0 0.00 0.00 0.00 24 1016.8
20260508185511 71 353 12.0 22.0 0.00 0.00 0.00 22 1016.9
20260508185011 72 340 11.0 22.0 0.00 0.00 0.00 22 1017.0
20260508184516 72 11 10.0 20.0 0.00 0.00 0.00 22 1017.0
20260508184010 71 9 10.0 19.0 0.00 0.00 0.00 23 1017.0